Flag for U.S.A. Weather past 2 weeks in Chico, California, U.S.A.

Now
81 °F

Clear.


Feels Like: 80 °F
Forecast: 72 / 106 °F
Wind: 3 mph from Northeast

Location: Chico Municipal

Current Time: Jun 30, 2015 at 1:40:13 AM

Latest Report: Jun 30, 2015 at 1:15 AM


Visibility: 10 mi

Pressure: 29.87 "Hg

Humidity: 30%

Dew point: 46 °F

Location of ChicoLocation

Historic Weather in Chico — Graph

°F

Chico temperature yesterday

Maximum temperature yesterday: 99 °F (at 3:55 PM)
Minimum temperature yesterday: 68 °F (at 4:55 AM)
Average temperature yesterday: 82 °F

Past Weeks' High & Low Weather Summary

 TemperatureHumidityPressure
High102 °F (Jun 26, 3:50 PM)64% (Jun 15, 3:15 AM)30.02 "Hg (Jun 15, 3:15 AM)
Low59 °F (Jun 22, 5:55 AM)9% (Jun 22, 4:55 PM)29.75 "Hg (Jun 15, 12:15 AM)
Average80 °F34%29.87 "Hg
* Reported Jun 15 12:15 AM — Jun 30 12:35 AM, Chico, Weather by CustomWeather, © 2015

Note: Actual official high and low records may vary slightly from our data, if they occured in-between our weather recording intervals... More about our weather records

Advertising

Chico weather history for previous 24 hours

 ConditionsComfort  
Time TempWeatherWind HumidityBarometerVisibility
12:35 AM
Tue, Jun 30
82 °FClear.7 mph28%29.87 "Hg10 mi
12:15 AM82 °FClear.No wind28%29.87 "Hg10 mi
11:55 PM
Mon, Jun 29
82 °FClear.No wind28%29.87 "Hg10 mi
11:35 PM82 °FClear.No wind28%29.87 "Hg10 mi
11:15 PM84 °FClear.No wind27%29.87 "Hg10 mi
10:55 PM84 °FClear.5 mph27%29.87 "Hg10 mi
10:35 PM86 °FClear.5 mph25%29.87 "Hg10 mi
10:15 PM86 °FClear.6 mph25%29.87 "Hg10 mi
9:55 PM86 °FClear.3 mph25%29.86 "Hg10 mi
9:15 PM90 °FSunny.5 mph21%29.85 "Hg10 mi
8:55 PM91 °FSunny.No wind23%29.84 "Hg10 mi
8:15 PM95 °FSunny.No wind18%29.83 "Hg10 mi
7:55 PM95 °FSunny.6 mph14%29.83 "Hg10 mi
7:35 PM97 °FSunny.7 mph16%29.83 "Hg10 mi
7:15 PM99 °FSunny.8 mph15%29.83 "Hg10 mi
6:55 PM99 °FSunny.9 mph14%29.82 "Hg10 mi
5:56 PM99 °FScattered clouds.9 mph15%29.83 "Hg40 mi
4:55 PM99 °FScattered clouds.8 mph21%29.85 "Hg40 mi
3:55 PM99 °FSunny.6 mph15%29.87 "Hg10 mi
2:52 PM95 °FSunny.6 mph22%29.89 "Hg10 mi
1:47 PM93 °FScattered clouds.6 mph28%29.91 "Hg40 mi
12:48 PM90 °FSunny.No wind31%29.93 "Hg10 mi
10:53 AM82 °FScattered clouds.No wind42%29.95 "Hg40 mi
9:50 AM81 °FSunny.6 mph45%29.96 "Hg10 mi
7:50 AM75 °FSunny.No wind47%29.97 "Hg10 mi
6:50 AM70 °FPassing clouds.No wind57%29.97 "Hg10 mi
6:35 AM70 °FClear.No wind60%29.96 "Hg10 mi
6:15 AM68 °FClear.3 mph64%29.96 "Hg10 mi
5:55 AM68 °FClear.No wind64%29.95 "Hg10 mi
5:35 AM68 °FClear.No wind64%29.95 "Hg10 mi
5:15 AM68 °FClear.No wind64%29.95 "Hg10 mi
4:55 AM68 °FClear.No wind64%29.94 "Hg10 mi
4:15 AM70 °FClear.No wind60%29.93 "Hg10 mi
3:55 AM73 °FClear.No wind53%29.93 "Hg10 mi
3:15 AM75 °FClear.9 mph50%29.92 "Hg10 mi
2:55 AM75 °FClear.10 mph47%29.92 "Hg10 mi
2:35 AM75 °FClear.9 mph47%29.91 "Hg10 mi
2:15 AM75 °FClear.10 mph47%29.90 "Hg10 mi
1:55 AM77 °FClear.9 mph44%29.90 "Hg10 mi
1:35 AM77 °FClear.9 mph42%29.90 "Hg10 mi
1:15 AM77 °FClear.8 mph42%29.89 "Hg10 mi
Weather by CustomWeather, © 2015

See weather overviewHow to use our weather pages